Theta_e
309 309 309 309 309 309 309 309 309 309 309 309 309 309 309 309 309 308 308 308 308 308 308 308 308 308 308 308 309 309 310 312 314 314 314 314 313 313 313 313 314 314 314 315 313 313 313 313 314 313 316 316 315 316 314 319 321 321 328 325 322 326 324 324 324 321 320 321 323 321 316 315 317 316 312 310 312 315 316 316 315 313 312 312 311 309 309 310
309 309 309 309 309 309 309 309 309 309 309 309 309 310 310 310 309 309 309 309 309 308 309 308 308 308 308 308 309 310 311 313 313 313 314 314 315 315 315 314 314 314 314 314 313 312 314 315 312 314 319 317 315 316 317 318 320 326 328 321 324 329 324 321 323 321 317 317 321 321 316 313 315 314 312 313 317 317 316 316 315 314 314 312 308 307 308 308
310 310 309 310 309 309 309 309 309 309 309 310 310 310 310 310 310 310 310 310 310 309 309 309 309 309 308 308 309 310 312 312 312 313 314 315 315 315 316 315 314 315 314 314 314 312 314 315 311 316 320 317 318 319 320 319 319 326 324 322 329 329 322 318 321 321 317 316 318 319 316 314 315 313 312 314 316 317 316 316 316 316 316 315 312 308 306 307
310 310 310 310 310 310 310 310 310 310 310 310 310 310 310 310 310 310 310 310 310 310 310 310 310 309 309 309 309 311 312 312 313 314 315 315 315 315 316 316 315 315 315 314 314 312 313 312 311 318 319 317 321 320 321 322 320 322 320 325 331 324 320 320 322 321 316 314 314 317 317 315 314 311 312 314 315 316 316 315 315 316 315 316 316 311 304 304
311 311 311 311 311 311 311 311 311 311 311 311 311 311 311 311 310 311 310 310 310 310 310 310 310 310 310 309 309 311 313 314 315 315 316 316 315 315 317 316 315 316 315 314 314 313 312 312 313 320 320 318 320 319 324 324 319 320 320 324 329 321 318 320 322 319 314 313 316 317 316 315 312 311 313 313 314 316 316 316 315 315 315 315 314 312 306 305
312 312 312 312 312 313 313 313 312 312 312 312 312 312 312 312 312 312 311 311 311 310 310 310 310 310 310 309 310 312 314 314 313 314 316 316 315 315 317 316 315 315 315 314 312 312 313 313 314 320 321 318 319 319 321 320 316 319 322 323 324 320 318 320 322 319 315 316 318 317 315 314 312 313 314 312 314 315 315 316 315 314 312 310 309 312 316 317
313 313 314 314 314 314 313 313 313 313 313 313 313 313 313 313 312 313 312 312 312 312 311 311 310 310 310 310 312 314 315 315 314 314 315 314 315 316 316 316 316 315 315 313 312 315 318 317 316 320 321 318 318 320 319 318 316 318 321 322 321 319 318 319 318 318 318 317 317 316 314 314 314 314 313 311 313 314 314 314 313 310 306 306 310 314 318 318
314 314 314 314 314 314 314 314 314 314 314 313 313 313 313 313 313 313 313 313 313 313 312 312 312 310 310 311 313 315 315 316 313 313 313 314 315 315 316 317 316 316 314 313 313 316 318 317 317 316 318 318 317 318 317 316 317 319 321 321 321 320 321 320 316 316 318 317 314 313 315 315 314 312 311 311 312 312 312 312 311 309 308 309 312 312 312 313
315 315 315 315 315 315 315 315 315 315 314 313 313 313 312 312 312 312 313 313 313 313 313 313 313 312 312 311 311 313 314 314 313 314 313 313 315 315 317 317 316 316 314 313 313 313 315 319 318 315 317 318 315 315 316 314 317 321 320 320 321 319 319 318 316 315 317 317 312 312 315 314 312 311 312 312 312 311 311 311 311 311 312 311 310 310 309 310
315 315 315 316 316 316 316 315 315 314 313 313 313 312 311 311 311 311 312 312 313 313 313 312 313 313 312 311 312 313 313 314 314 314 314 314 315 316 316 316 316 316 313 312 312 312 314 316 315 313 315 316 313 313 316 314 315 319 318 318 319 316 314 314 314 314 313 314 312 311 313 312 311 311 312 313 313 312 312 313 312 312 313 312 311 310 307 307
316 316 316 316 316 316 316 315 315 314 314 314 313 312 311 311 311 310 310 311 311 312 312 312 312 312 311 311 313 312 312 314 314 315 316 316 316 316 316 316 315 315 313 311 310 312 312 311 309 309 312 313 312 313 314 313 312 314 314 315 317 315 313 312 312 312 310 311 311 310 310 311 311 310 312 312 312 313 313 314 313 312 313 313 312 309 307 307
316 316 317 316 316 317 317 317 317 316 316 315 313 313 312 312 311 310 310 310 310 310 311 311 311 312 311 311 313 311 311 312 313 314 315 315 315 315 315 315 314 314 313 310 310 312 310 310 310 311 312 311 312 312 312 312 311 312 312 313 316 315 313 311 312 313 310 310 312 310 309 312 312 312 314 311 311 313 313 314 313 312 311 311 311 309 307 306
317 317 317 318 318 319 319 319 318 318 318 315 315 314 312 312 311 310 310 310 310 309 310 311 311 311 311 314 314 311 311 310 311 312 312 313 313 314 313 313 313 312 312 311 310 310 310 310 311 313 312 311 314 311 310 312 312 312 312 313 313 313 313 312 312 312 310 311 313 310 310 316 316 315 315 310 310 313 313 314 312 311 310 309 309 309 308 306
317 317 318 319 320 320 321 320 320 320 318 316 316 314 312 311 311 311 311 311 311 310 310 310 311 310 310 315 313 311 312 311 311 311 310 312 312 312 312 312 312 311 311 310 309 311 310 309 310 311 310 312 315 310 311 317 318 314 310 312 313 312 317 317 312 309 309 312 312 310 311 315 314 315 314 310 310 311 312 312 312 311 310 308 309 309 309 308
318 319 319 320 320 321 321 321 322 321 318 317 316 314 312 311 312 312 313 313 312 311 311 310 310 310 312 316 313 312 312 311 312 311 311 311 311 312 311 311 311 310 311 310 311 311 309 309 311 312 312 311 311 311 316 320 325 322 312 314 316 313 318 318 312 311 311 311 309 309 312 312 311 313 312 309 309 309 310 311 312 312 311 310 309 308 308 308
318 319 319 320 321 321 322 322 323 321 318 319 317 314 312 312 313 313 313 312 311 311 311 311 311 310 314 316 312 312 311 311 312 312 312 312 311 312 311 311 310 310 311 310 312 311 309 312 312 312 313 311 311 315 317 318 325 323 312 314 318 314 314 314 313 315 312 310 309 309 312 311 312 315 314 311 309 309 310 310 310 311 311 310 309 308 308 309
319 320 320 321 321 322 322 322 323 321 320 320 318 315 313 313 313 312 312 311 312 312 310 312 311 309 313 313 311 313 311 310 312 312 313 312 311 312 311 310 309 309 310 310 311 310 309 311 310 313 315 314 315 318 317 316 319 319 314 315 317 315 313 313 314 315 311 310 311 310 309 310 310 312 312 311 310 310 309 309 309 309 308 308 309 308 308 308
320 321 322 322 322 322 322 322 323 322 321 321 318 315 314 315 313 312 313 312 311 311 311 312 310 312 317 313 311 313 310 310 312 311 312 312 311 311 311 310 307 308 310 311 311 310 311 313 315 318 317 314 314 316 317 317 316 317 316 316 315 314 313 312 313 313 312 311 310 311 309 309 309 309 309 309 309 309 309 309 308 308 308 308 308 308 308 308
322 322 323 323 323 323 322 322 323 322 321 321 319 314 314 315 314 312 311 311 313 314 315 315 313 318 321 314 310 310 311 312 312 311 311 311 310 310 310 309 309 311 313 315 313 311 314 316 317 318 316 314 314 314 314 315 314 313 313 314 313 312 311 311 311 311 311 309 309 310 309 309 309 308 309 308 308 309 309 309 309 309 309 308 308 308 308 309
323 323 323 324 324 323 323 322 322 322 321 321 318 314 314 316 319 320 314 312 316 314 316 318 315 317 318 314 311 310 313 313 312 312 311 310 309 310 310 308 312 314 314 319 317 311 313 316 316 317 316 315 313 313 312 313 313 311 312 313 312 312 311 310 310 310 309 308 309 310 310 310 309 309 309 309 308 309 308 308 309 310 309 310 309 309 309 309
322 323 324 324 323 322 322 322 322 321 321 320 317 314 313 313 318 321 316 315 313 308 313 316 311 313 314 312 311 310 313 313 312 312 310 310 310 312 313 311 313 315 315 320 316 310 311 314 316 316 315 313 313 313 311 311 312 312 313 313 312 312 311 310 310 310 309 308 310 311 310 309 309 309 309 309 309 309 309 309 309 309 310 311 311 310 310 310
322 324 324 323 323 322 322 323 323 321 321 320 315 311 309 308 310 310 310 316 314 307 309 311 308 310 310 309 309 310 313 315 314 313 311 310 310 313 316 315 317 317 315 315 314 312 313 314 315 314 312 313 314 313 312 312 312 313 313 312 312 311 311 311 310 312 310 309 312 312 310 309 309 309 309 309 309 309 310 310 310 310 310 311 311 311 311 310
323 323 323 323 323 322 322 323 322 321 322 319 313 311 309 308 308 307 308 314 316 313 311 310 310 311 310 309 309 310 312 313 314 314 312 311 312 314 315 315 316 317 315 314 315 316 317 318 316 312 310 311 312 311 312 312 311 313 314 312 313 312 312 312 313 316 312 309 311 310 309 310 310 310 310 310 309 309 310 310 310 311 310 311 311 311 311 311
323 322 322 323 323 323 323 323 321 321 321 317 313 312 310 309 308 307 309 313 317 317 313 309 310 312 313 310 309 310 313 313 314 313 311 312 315 314 314 316 317 316 315 315 316 316 317 318 315 312 311 311 312 311 312 313 312 313 314 313 313 313 312 311 312 314 312 312 314 311 311 314 316 316 317 315 310 310 310 309 311 311 310 310 311 311 311 311
322 321 321 322 323 324 323 323 321 321 321 316 313 313 310 309 307 307 312 317 320 319 312 307 308 311 311 308 309 311 312 313 313 311 309 311 314 313 312 314 315 317 315 313 314 314 314 315 313 314 313 311 312 313 314 315 312 313 316 315 312 313 313 313 313 311 312 317 316 312 313 317 319 319 323 323 317 315 314 312 313 311 309 311 312 312 311 310
322 321 321 322 322 322 322 323 321 321 322 316 314 315 310 309 308 307 312 319 326 325 315 309 310 311 308 308 309 310 314 314 309 307 308 309 310 311 313 312 311 316 316 314 313 312 314 313 310 314 317 314 313 315 317 315 312 313 319 319 315 313 313 314 313 312 316 317 313 314 317 316 316 316 319 319 317 319 318 315 313 310 310 313 314 312 310 309
322 321 322 322 321 321 322 323 321 322 323 319 316 315 311 310 307 306 313 323 328 324 315 311 310 309 308 307 307 310 316 314 307 307 309 309 308 309 313 313 311 312 311 313 316 315 315 313 310 313 317 317 315 315 316 313 313 317 318 320 319 317 316 314 312 313 316 315 313 315 316 315 316 316 317 316 315 318 317 314 312 312 313 313 313 312 310 309
322 322 322 322 322 321 321 322 322 321 322 320 318 316 312 309 307 310 321 330 330 321 315 312 308 309 309 306 307 311 311 309 309 308 305 306 309 309 312 315 315 315 311 313 317 315 314 314 314 315 316 317 316 316 317 313 315 318 314 314 317 316 315 314 313 315 315 314 315 315 313 316 318 316 316 315 316 320 319 317 315 316 320 318 315 312 308 309
320 321 321 322 321 321 320 321 321 321 321 319 318 318 313 308 307 314 326 328 325 318 314 311 309 310 311 308 310 312 309 308 310 309 306 307 308 308 311 314 316 316 312 312 315 313 312 314 315 317 317 316 316 318 318 315 315 315 311 312 316 316 316 314 315 319 319 318 317 316 315 317 320 319 319 316 316 322 324 323 319 316 322 325 317 310 309 311
318 318 320 321 321 321 321 321 321 321 321 319 320 318 313 312 314 320 327 324 318 316 314 311 311 311 311 312 313 312 310 311 310 310 311 310 309 309 309 309 312 316 313 311 314 313 310 309 310 315 316 315 318 315 311 313 315 312 312 317 319 318 316 316 317 318 320 320 318 319 317 316 319 322 322 320 319 323 322 322 322 320 323 326 315 309 312 312
315 316 317 320 321 321 321 320 320 321 320 320 320 316 314 319 324 325 326 320 315 318 315 312 314 315 315 314 315 314 312 313 312 311 312 310 312 313 310 309 314 320 319 314 314 313 309 308 311 316 316 314 316 313 308 309 311 313 316 318 318 318 318 320 320 318 319 323 321 318 315 315 319 320 319 321 321 321 317 315 320 321 323 323 313 310 314 312
312 313 314 317 319 320 320 320 319 319 320 318 317 318 320 324 324 323 325 321 319 322 317 313 315 317 317 314 318 318 313 314 313 311 315 315 315 315 315 319 318 321 325 323 320 318 315 314 313 313 312 311 313 314 312 310 310 312 317 316 314 318 320 321 321 319 320 322 318 314 313 314 317 316 316 319 318 317 314 312 315 316 317 317 312 313 316 313
310 311 311 313 316 318 319 319 318 318 319 317 316 321 325 324 322 322 326 324 320 319 317 316 315 315 315 317 324 321 313 317 316 311 315 315 314 317 319 320 318 318 323 322 320 322 322 319 312 309 312 312 313 314 315 315 313 311 314 317 317 319 321 322 323 320 320 322 316 312 315 316 316 317 318 316 313 316 316 314 315 315 315 314 312 315 317 312
308 309 309 310 312 315 317 318 319 318 318 317 319 323 323 322 322 321 326 326 322 321 319 317 317 317 316 319 326 322 316 322 319 311 314 313 314 322 321 315 313 315 317 316 318 321 322 323 318 315 317 314 311 313 318 322 316 310 314 318 318 321 324 324 325 324 324 324 316 310 316 320 319 320 320 316 317 320 316 312 315 315 311 312 315 318 317 312
306 306 307 308 309 312 314 316 318 318 317 317 320 324 321 321 321 319 323 326 325 324 320 318 318 320 321 320 323 321 317 322 318 311 315 317 319 326 326 321 315 313 315 317 319 319 318 323 322 316 314 312 311 314 320 324 318 311 315 317 316 321 323 321 323 324 323 323 317 314 318 321 318 317 318 317 318 318 314 314 317 315 312 315 319 318 315 310
305 305 305 306 307 309 311 314 317 317 316 317 321 323 320 320 322 322 321 320 320 322 321 320 320 321 324 324 322 317 313 317 317 313 316 317 319 322 324 325 320 313 314 319 322 319 318 322 320 312 311 312 312 313 315 320 319 314 314 316 316 318 319 317 320 321 319 320 320 319 320 319 317 318 317 316 315 315 316 316 315 314 314 316 315 312 311 307
304 303 304 304 305 307 308 311 315 316 316 318 321 322 320 319 320 322 322 318 317 320 319 320 320 322 325 324 321 317 313 315 316 315 320 319 317 320 320 321 319 313 313 317 320 320 319 319 318 314 314 312 308 310 313 314 314 315 317 317 314 315 315 316 320 321 320 319 320 320 321 319 320 321 318 316 318 319 318 315 312 312 311 309 307 306 305 302
302 302 304 304 304 305 306 309 313 315 316 319 321 321 320 319 317 319 322 317 315 318 318 319 320 321 324 323 321 319 316 318 317 317 322 320 318 321 319 317 316 312 311 311 315 320 318 316 319 318 315 312 307 310 314 311 309 313 317 314 314 317 317 318 320 321 320 320 321 321 321 320 320 321 318 319 320 318 316 315 311 308 305 303 302 301 299 297
301 304 307 306 306 306 305 308 313 315 317 320 321 319 318 318 318 319 321 318 316 318 319 321 320 319 321 321 320 321 319 319 319 318 320 320 318 318 317 317 315 312 311 310 314 320 317 316 320 319 315 312 310 313 318 316 310 309 311 312 314 316 316 318 320 320 320 320 321 322 322 321 320 319 318 318 315 311 312 312 308 303 301 299 298 297 296 295
302 307 310 308 309 308 305 309 314 316 319 320 319 318 317 318 320 320 320 318 318 319 319 321 321 319 320 319 318 321 321 320 320 318 319 320 319 319 318 317 314 313 313 311 312 315 316 317 318 317 316 314 313 316 319 318 316 313 313 314 314 313 316 317 316 318 319 318 320 321 321 322 323 322 317 313 310 308 309 308 304 300 297 296 295 294 294 293
302 308 310 309 310 309 308 312 315 316 319 319 317 316 315 317 318 318 318 316 316 318 317 319 321 319 318 319 319 319 321 322 321 319 319 320 319 319 318 315 316 317 314 313 313 314 316 318 317 316 315 315 315 316 314 314 318 317 315 315 314 313 316 317 316 317 317 316 318 319 319 322 324 321 316 311 306 303 305 304 300 297 295 295 294 293 293 292
303 309 309 308 310 309 309 313 313 315 318 317 317 316 315 316 316 315 316 315 315 316 316 317 319 318 317 318 318 317 319 321 320 319 320 319 319 318 314 313 317 317 315 317 318 316 316 317 316 316 316 316 316 315 313 315 317 316 314 315 316 314 314 316 317 318 318 317 317 318 319 320 320 322 321 312 302 298 298 298 297 295 294 293 293 293 292 292
303 306 305 306 309 310 311 312 312 314 316 316 316 315 315 317 317 316 315 315 315 316 317 317 317 317 317 317 317 317 319 319 318 318 318 319 318 313 308 311 315 315 315 318 317 313 312 315 315 315 317 318 319 317 314 314 315 315 315 316 316 315 315 316 315 316 318 318 318 319 320 319 323 329 322 307 298 296 295 295 294 293 293 293 293 292 292 292
301 302 302 302 304 308 311 313 313 314 315 315 315 315 315 316 316 315 315 315 316 316 316 316 316 316 316 316 316 316 317 317 316 316 316 318 315 306 304 310 314 313 313 314 314 311 311 313 315 315 317 318 319 318 315 314 315 316 316 316 316 315 315 315 315 316 317 318 318 320 319 319 324 327 313 300 296 296 294 293 293 293 292 292 292 292 292 292
299 300 301 301 300 304 310 311 312 314 314 314 315 315 315 315 315 315 315 314 315 316 316 315 313 313 312 313 313 314 314 314 314 314 314 316 314 306 304 308 310 310 310 308 309 310 311 313 315 316 317 316 315 315 315 315 315 313 313 314 314 313 314 314 315 316 317 318 318 318 317 317 319 319 310 302 298 296 294 292 292 292 292 292 292 292 292 292
299 301 303 303 303 305 307 307 309 312 313 313 314 314 314 313 313 314 315 314 314 314 315 314 311 310 311 312 312 312 313 312 312 312 312 314 315 309 304 305 306 308 308 306 307 310 312 313 315 314 315 314 313 314 313 312 312 312 312 312 311 311 312 311 312 313 314 314 314 314 315 314 314 315 310 303 297 295 294 292 292 292 292 292 292 292 292 292
299 302 303 305 306 306 305 305 306 309 309 310 312 312 312 312 312 312 313 314 313 312 313 313 311 311 313 312 313 313 313 313 312 312 311 311 312 309 305 305 306 306 305 305 306 310 311 310 312 313 313 312 312 312 311 309 308 309 309 308 309 309 308 309 309 310 311 312 312 312 312 311 311 310 306 300 295 294 293 293 292 292 291 292 292 293 293 292
298 301 301 301 303 304 304 304 303 304 305 306 307 308 309 311 312 312 312 311 310 310 312 311 309 310 310 310 311 312 312 312 311 310 310 309 308 308 307 306 303 302 302 302 305 309 308 307 308 309 309 309 309 309 307 306 305 306 306 306 306 306 306 307 307 307 309 309 309 309 308 308 308 305 299 295 294 293 293 293 293 292 292 292 293 292 293 292
296 298 298 298 299 299 299 299 299 300 302 303 304 306 308 309 310 310 310 309 309 309 311 311 308 307 306 306 309 310 310 310 309 308 308 307 306 306 308 307 303 300 299 299 301 305 305 304 306 306 305 306 306 305 304 303 303 303 303 304 304 305 306 306 306 306 306 306 305 305 306 307 305 299 295 294 293 293 293 293 293 293 293 293 293 293 293 292
296 297 296 296 296 296 296 297 298 299 300 301 303 304 305 306 307 306 306 307 307 307 308 308 306 304 303 304 306 307 305 304 305 305 304 304 305 304 304 305 304 301 298 297 300 304 305 304 305 304 302 302 302 302 302 302 302 302 302 303 303 303 304 303 303 303 302 303 303 304 305 306 299 293 293 293 292 292 293 292 292 293 293 293 292 292 292 292
295 295 295 295 295 295 296 296 296 298 299 300 301 302 303 304 302 303 304 302 302 304 304 303 301 301 301 300 302 302 301 300 301 301 300 300 302 301 300 301 300 298 298 298 300 303 303 302 301 300 300 300 300 301 300 300 301 300 300 300 300 301 301 301 301 301 301 302 303 303 305 303 297 292 293 293 291 291 291 291 292 292 292 292 292 292 292 292
294 294 294 294 294 294 295 295 295 297 298 298 300 301 302 300 298 300 303 300 297 298 298 297 297 299 299 299 299 298 297 297 297 297 296 297 298 298 298 298 297 297 297 297 298 299 299 298 298 298 298 298 298 298 298 298 297 296 297 299 299 298 299 299 300 301 302 303 304 304 303 298 294 294 294 293 292 291 291 291 292 291 291 292 292 292 292 293
Wind_Speed
7 7 7 7 7 7 7 7 7 6 7 7 7 7 8 8 8 8 9 9 9 9 9 10 10 11 11 11 11 10 11 13 10 7 7 6 4 5 8 5 4 10 12 9 8 9 6 4 4 5 5 3 3 1 2 2 2 2 3 2 2 3 4 6 8 7 4 3 4 3 3 3 5 4 2 0 1 3 5 7 6 4 8 11 9 6 4 5
7 7 7 7 7 7 7 6 6 6 7 7 7 7 8 8 8 9 9 10 10 10 10 10 10 11 11 11 11 10 13 13 9 8 7 4 1 3 6 8 6 8 12 11 10 10 7 2 4 5 4 2 2 2 1 1 2 2 3 2 4 5 5 6 7 6 5 5 4 5 3 4 5 3 0 2 5 4 6 10 5 6 12 13 13 13 10 9
7 7 7 7 7 7 6 6 7 7 7 7 7 8 8 9 9 10 10 11 11 11 11 11 11 11 11 11 10 10 13 11 7 6 5 4 0 3 3 7 8 8 12 10 9 10 6 5 8 6 4 2 1 2 2 1 1 2 3 2 6 7 5 5 6 8 8 5 3 6 3 2 5 3 1 3 5 4 7 11 7 8 12 12 10 12 12 12
6 6 6 6 6 6 6 6 7 7 7 8 8 9 9 10 10 10 11 11 11 12 12 12 12 12 12 11 9 11 11 7 4 4 8 3 3 3 2 6 9 10 12 8 7 9 4 7 8 5 3 1 3 2 0 2 1 1 3 5 6 4 4 6 9 10 7 3 4 5 4 5 5 2 2 3 3 7 10 12 12 14 13 12 8 8 12 12
5 6 6 6 6 6 6 7 7 8 8 9 9 10 10 11 11 11 11 11 12 12 13 13 13 13 12 11 10 9 8 5 2 5 5 1 5 4 1 6 10 10 12 8 7 8 6 7 6 5 3 1 2 2 2 4 3 2 4 7 6 4 4 7 8 8 4 3 4 4 5 7 2 1 5 6 5 9 10 10 12 15 12 11 9 6 9 10
5 5 6 6 6 7 7 8 8 9 9 10 10 11 11 12 12 13 12 13 13 12 13 13 13 12 11 11 8 5 3 1 5 5 5 6 7 5 2 6 10 11 13 10 9 9 6 6 4 2 2 1 2 3 4 3 2 3 5 5 6 6 6 5 4 4 5 4 5 4 4 4 1 5 5 9 12 15 15 12 11 11 10 9 7 5 7 9
5 5 6 7 7 8 8 9 10 10 11 11 12 12 13 13 13 14 14 14 14 13 13 13 13 12 11 9 5 2 4 5 13 11 11 11 10 6 4 7 10 13 14 12 11 8 5 5 3 4 3 1 3 5 4 1 1 3 5 5 5 6 8 7 2 2 4 6 8 2 5 8 7 6 2 8 15 17 19 16 10 9 8 7 7 7 9 10
5 5 6 6 7 8 9 10 11 11 12 12 13 13 14 14 14 15 15 16 16 15 14 13 13 11 11 5 1 2 1 9 18 16 15 13 10 7 7 9 12 14 14 14 12 9 6 6 5 4 2 3 4 4 4 1 1 5 8 5 2 3 7 8 5 4 5 8 6 2 7 15 13 3 6 15 16 17 20 16 10 8 8 7 10 12 11 10
5 5 6 7 7 9 9 10 11 12 13 13 14 14 14 15 15 15 15 16 16 16 15 14 13 10 9 3 3 2 5 9 11 10 11 10 10 9 10 10 13 15 14 12 12 11 7 6 6 5 4 3 5 4 3 3 4 7 8 4 4 5 6 6 7 7 6 6 4 3 11 16 9 1 11 22 17 15 16 15 10 7 10 10 11 14 11 10
6 6 7 7 8 10 11 12 13 13 14 14 15 15 15 15 15 16 16 17 17 16 15 13 12 9 6 1 2 5 7 6 6 7 7 7 10 11 12 11 14 16 13 10 12 13 8 7 7 5 4 3 4 4 3 5 4 4 3 4 6 8 8 4 6 7 4 6 6 8 13 14 5 2 11 18 8 6 9 12 10 5 10 11 10 12 10 9
6 7 8 8 10 11 12 13 14 14 15 15 16 16 16 16 17 17 18 18 18 17 15 13 11 7 4 2 3 7 5 4 6 7 7 8 10 10 12 12 13 15 13 9 13 16 9 8 10 7 2 3 3 2 3 5 1 2 1 5 8 7 9 6 7 8 4 5 7 11 10 10 3 2 14 19 3 3 7 11 11 6 9 10 9 10 6 8
6 7 8 9 10 11 12 13 14 15 16 16 16 17 18 18 18 19 19 18 18 17 15 13 9 6 3 1 7 12 11 8 8 7 8 9 10 9 10 11 11 12 12 8 11 17 11 8 12 6 3 4 2 1 4 2 2 2 3 4 9 7 11 10 6 5 5 4 5 9 3 6 5 9 19 17 2 4 7 10 12 10 10 9 9 9 6 10
6 7 8 10 11 12 13 14 15 16 17 17 17 18 19 19 19 19 19 18 17 15 13 10 8 5 2 2 7 12 14 14 12 12 13 12 10 9 8 9 9 10 12 9 6 11 13 11 11 5 3 4 2 2 2 3 2 3 2 0 6 6 9 8 1 1 2 5 6 6 3 5 8 15 19 9 2 5 6 9 11 10 10 8 7 8 8 10
5 7 9 10 12 12 14 15 16 18 18 18 19 20 20 20 19 17 16 15 14 12 9 6 6 5 3 6 8 7 11 13 13 15 15 15 11 6 5 6 9 10 10 9 4 4 11 13 8 4 1 3 2 2 2 5 3 3 1 1 2 2 6 7 1 2 2 4 6 4 5 7 8 14 16 6 2 5 6 9 10 10 10 8 7 7 9 10
6 8 9 11 12 13 15 16 18 19 19 19 20 21 21 19 16 14 12 10 8 5 4 4 7 7 2 7 9 6 8 9 10 13 14 15 12 6 5 7 9 9 9 7 5 4 10 11 7 3 2 1 0 2 3 4 3 2 2 3 2 3 5 10 6 5 6 4 4 4 6 6 8 13 14 5 3 3 6 10 9 11 13 10 9 7 9 11
7 8 10 11 12 14 15 17 20 20 20 20 21 22 19 14 11 12 9 5 2 3 4 5 9 6 1 4 5 6 6 6 7 9 9 12 12 7 8 9 8 8 8 6 7 8 10 8 3 2 1 1 2 1 3 4 4 2 2 5 5 5 3 7 8 6 7 2 1 6 7 6 6 9 11 7 5 5 6 11 11 13 14 14 12 9 10 12
7 8 10 11 12 13 15 17 20 20 21 21 22 21 14 8 9 8 6 5 6 7 6 5 7 4 2 4 4 6 4 4 5 5 5 8 10 11 11 8 6 9 9 6 8 7 4 3 1 0 1 1 2 3 3 2 5 3 2 4 4 5 4 4 8 7 1 5 5 6 8 10 10 9 11 12 12 10 10 15 15 14 14 15 13 12 13 13
7 8 9 10 11 12 14 17 19 21 21 21 22 18 8 5 6 7 8 8 9 8 6 4 5 2 4 4 3 4 2 0 2 1 3 6 9 13 10 7 6 9 8 5 3 2 2 2 2 1 1 1 2 4 2 7 8 6 4 4 4 4 5 5 6 6 4 4 5 5 10 15 14 11 12 14 13 13 15 17 16 15 15 14 12 14 15 14
6 7 8 9 10 11 13 16 19 21 21 22 21 12 4 5 3 5 5 4 5 2 0 1 3 2 3 5 5 4 2 0 1 2 5 8 11 11 7 7 8 8 5 2 1 1 1 3 4 2 3 6 6 7 11 12 7 5 4 4 6 6 6 8 9 8 5 7 8 10 17 17 14 12 11 12 10 10 16 18 17 16 13 11 11 13 14 16
6 7 8 9 9 10 13 15 18 20 21 23 20 8 3 6 4 1 5 4 3 5 4 5 7 4 7 7 3 2 2 2 1 3 7 10 12 10 5 4 5 4 3 4 3 2 3 3 3 6 9 11 10 10 12 8 2 0 2 4 6 7 9 9 12 10 2 4 8 11 18 18 15 13 11 12 11 10 16 20 19 17 14 12 12 14 15 17
6 7 9 10 9 10 11 14 17 18 17 19 17 7 2 2 2 3 5 6 10 11 10 12 11 10 13 7 2 1 1 1 1 3 7 9 10 8 1 2 4 1 1 3 3 1 2 5 7 10 11 7 5 6 7 5 4 5 5 7 7 6 11 10 10 12 2 1 6 8 15 16 13 15 14 14 14 15 18 17 17 19 18 16 14 15 15 13
6 6 9 11 10 10 11 13 16 15 14 16 14 8 3 2 2 3 2 4 10 11 12 13 8 10 15 8 3 0 3 3 3 1 8 8 4 4 1 4 5 3 1 2 1 1 1 5 8 13 8 0 1 4 3 4 5 6 4 5 6 4 9 8 7 8 2 1 6 8 15 14 13 19 19 17 16 15 15 12 14 18 18 18 16 12 11 10
7 7 9 11 11 11 11 14 15 12 14 14 10 6 2 0 3 4 2 1 8 7 7 7 4 5 8 7 6 5 2 5 4 3 9 9 2 3 4 4 5 2 2 4 5 4 3 6 11 13 7 4 5 2 3 2 3 5 5 5 7 5 6 6 4 5 4 3 6 10 15 12 11 15 14 13 12 11 14 13 13 16 18 20 15 9 9 11
8 9 10 11 11 10 10 14 12 10 14 10 7 5 3 2 2 3 1 1 5 6 4 5 5 5 4 3 6 9 5 5 3 4 10 11 4 3 5 5 5 3 5 8 10 8 7 6 4 4 5 8 8 3 2 6 5 6 6 5 9 10 9 8 5 6 5 5 4 7 12 8 4 5 4 5 4 7 12 11 13 17 17 13 11 10 9 7
11 11 12 11 11 10 11 12 7 9 13 5 4 8 6 3 0 4 2 2 3 6 3 3 2 3 3 2 4 7 3 2 3 3 6 8 5 4 2 2 4 4 7 8 8 8 8 5 3 4 3 6 6 6 6 7 6 5 5 11 14 12 10 10 8 7 5 4 3 5 8 7 1 1 3 4 3 5 8 10 16 15 8 5 8 11 8 4
11 12 12 12 11 10 10 6 4 10 10 2 4 9 7 4 1 3 2 3 3 5 1 1 1 1 2 2 1 3 3 0 3 1 2 3 3 3 2 1 1 3 6 5 3 3 5 4 2 5 4 6 6 6 7 8 5 6 5 10 12 10 8 9 7 4 1 3 2 3 2 8 5 2 7 7 5 10 10 12 13 8 7 6 7 9 6 6
12 12 12 13 11 9 6 3 6 10 5 2 6 9 8 6 2 1 1 3 4 3 1 1 1 1 1 1 1 2 2 2 2 2 1 1 1 1 2 3 1 1 3 3 1 3 4 1 3 5 5 6 5 6 7 10 5 6 5 6 7 7 7 5 2 3 3 3 4 1 3 7 9 4 6 4 5 11 13 12 10 6 7 9 9 8 6 6
13 12 12 11 9 7 5 5 6 5 2 3 7 8 9 7 1 1 3 2 4 0 2 1 1 2 0 1 3 3 1 2 2 1 2 1 1 2 0 6 6 4 3 4 4 3 3 4 4 6 4 4 6 5 7 11 6 6 4 5 5 5 4 4 4 3 1 4 4 2 4 4 10 4 1 1 4 9 12 10 9 7 5 7 9 7 7 5
8 8 8 6 5 6 7 7 6 4 5 5 6 8 9 6 2 3 4 1 2 1 1 0 2 0 2 2 3 2 1 2 2 3 3 1 1 3 1 6 6 4 3 4 6 5 1 4 7 8 5 6 7 4 8 12 6 4 5 5 4 4 3 4 3 2 2 4 5 5 5 4 10 4 2 1 2 7 9 6 7 8 5 5 5 5 6 4
4 3 3 3 4 5 6 7 6 6 7 5 5 9 8 4 2 4 1 3 1 1 1 1 1 1 3 3 3 3 1 2 1 2 3 1 2 5 1 3 5 3 2 2 5 6 2 1 3 5 5 5 4 2 3 7 4 3 6 4 5 4 4 3 1 3 2 6 6 9 11 6 7 4 3 3 3 6 6 2 4 6 7 5 2 4 5 6
3 2 2 3 4 4 4 2 3 3 4 3 4 7 5 3 3 3 5 2 1 2 1 1 2 3 4 2 1 1 1 2 1 2 1 1 2 4 1 1 2 3 3 4 5 4 1 1 2 3 2 4 5 3 2 2 3 3 4 3 2 2 3 4 4 3 2 7 6 7 9 7 6 6 1 4 6 6 5 2 5 7 9 8 3 4 5 6
6 4 2 3 5 6 5 0 3 3 2 2 2 3 3 2 1 4 4 3 2 3 0 0 2 2 3 1 1 2 1 1 1 3 3 2 2 2 3 4 3 1 4 2 3 4 2 4 4 3 1 5 5 2 3 4 2 3 3 2 1 3 3 2 2 1 3 7 4 3 5 3 10 8 3 8 12 10 7 5 6 8 10 9 6 6 5 5
8 7 5 5 7 8 8 4 2 4 4 4 2 3 5 1 4 3 1 2 2 1 1 1 1 1 1 2 2 2 1 2 3 3 3 3 2 3 5 5 5 2 4 3 1 4 4 5 2 1 3 4 8 5 3 1 3 5 5 4 3 1 2 3 3 1 5 6 3 2 4 3 9 7 6 13 15 10 4 4 7 7 7 7 5 5 4 4
11 11 9 9 9 10 11 10 6 3 1 3 3 4 2 6 5 2 2 5 3 2 1 2 2 1 1 2 4 3 2 3 3 3 2 2 1 3 4 5 4 3 2 2 1 2 4 7 4 6 3 5 10 9 6 4 4 6 5 5 4 4 4 4 4 4 7 4 2 1 3 4 5 3 5 10 9 6 3 2 5 3 3 5 4 4 4 5
12 12 13 13 13 13 12 12 9 7 3 2 3 2 5 7 3 1 4 5 2 3 4 1 1 2 2 3 4 3 4 5 1 3 2 3 3 4 3 4 6 4 3 2 2 3 4 8 6 3 1 8 10 6 5 7 2 3 3 3 3 5 5 4 5 6 5 3 2 2 3 5 4 5 8 7 7 7 5 5 4 5 5 4 4 5 6 6
11 12 12 13 16 16 15 14 12 9 7 4 2 5 8 6 3 3 4 2 2 2 2 4 1 2 5 3 2 2 2 3 1 1 2 3 3 5 4 4 6 8 7 4 3 2 4 7 3 3 1 6 6 3 3 3 2 2 3 3 5 3 5 3 5 3 2 4 4 5 7 6 5 9 8 2 2 4 6 6 5 7 7 7 7 7 8 8
9 10 10 12 17 17 16 16 16 13 7 4 4 8 5 4 6 6 3 2 2 3 1 4 3 3 4 3 2 1 1 1 1 1 2 2 3 4 4 4 4 10 10 5 3 4 4 6 3 2 4 5 1 0 1 1 2 5 3 5 2 1 2 1 2 1 3 7 5 6 11 10 6 7 5 5 3 5 7 6 6 8 9 9 9 10 11 11
7 7 8 13 17 17 17 19 19 14 6 2 8 10 5 3 5 5 4 3 2 1 2 5 4 2 3 4 3 1 2 1 0 1 2 2 3 4 4 3 3 6 6 0 1 3 2 5 6 1 3 2 3 2 3 3 1 4 3 3 2 2 2 1 1 1 5 8 5 6 11 10 6 8 9 8 7 6 7 6 8 10 10 10 10 11 12 12
5 4 4 6 7 12 19 21 19 10 3 4 9 9 6 5 5 5 5 2 1 2 3 5 4 3 3 3 2 2 2 3 1 1 2 2 4 3 3 2 2 1 1 3 2 2 1 3 5 1 1 0 3 0 3 2 1 2 1 3 1 3 3 2 2 1 4 8 7 7 9 6 6 8 10 8 4 6 7 8 9 10 10 9 8 8 9 8
3 1 2 2 2 10 20 20 14 6 4 7 8 7 4 4 4 4 4 3 2 2 3 4 4 4 5 4 4 3 2 3 3 3 3 3 4 4 2 1 1 1 2 2 2 2 1 3 6 2 1 2 2 3 5 5 3 2 1 3 3 2 1 2 2 2 4 7 7 8 8 5 4 3 1 2 7 9 8 8 9 10 10 9 8 7 6 6
1 0 2 4 1 15 21 14 8 5 5 7 8 9 6 4 4 3 2 3 3 2 1 3 5 4 4 4 4 3 1 2 4 4 3 3 5 5 3 4 1 1 2 2 1 2 1 2 4 4 5 6 6 4 4 4 4 5 4 4 6 6 4 5 7 5 5 6 5 7 8 5 2 2 2 7 10 10 9 9 9 10 10 10 9 9 8 7
1 2 1 3 11 23 17 6 5 4 5 7 6 5 4 3 4 4 3 1 2 1 1 2 3 4 4 5 5 3 3 3 4 4 4 4 6 6 3 6 3 1 2 0 3 2 2 2 3 5 6 7 9 4 4 4 4 4 3 2 3 4 4 6 7 4 3 3 3 4 6 3 2 4 5 8 11 8 7 9 9 7 8 9 9 9 8 8
1 2 4 1 13 20 9 3 5 4 5 4 2 3 4 2 3 4 2 1 2 2 2 2 3 5 5 6 6 5 5 5 6 8 7 4 4 3 4 5 3 3 3 2 2 2 1 2 2 4 4 5 9 6 1 3 2 2 2 1 1 3 3 4 5 3 2 4 5 5 5 3 2 4 5 10 10 7 8 10 8 6 6 7 8 7 7 7
0 2 4 3 5 9 5 4 5 6 6 5 4 7 6 3 4 6 4 3 3 2 2 2 4 5 5 3 3 5 5 4 5 6 4 3 3 0 5 7 5 3 2 1 2 2 1 1 1 2 3 3 5 5 2 3 2 1 2 2 1 3 6 6 4 3 3 6 8 8 5 2 3 4 7 11 10 10 10 9 8 7 6 6 7 7 8 8
1 1 3 4 3 2 3 2 1 4 7 8 9 9 8 5 4 5 5 4 4 4 2 2 2 1 1 1 1 2 3 3 2 1 1 1 3 1 4 6 5 2 1 0 1 2 1 2 2 2 3 3 4 5 2 2 2 1 2 3 3 3 5 5 4 4 5 5 6 7 6 4 4 5 7 8 8 8 8 6 6 6 5 6 6 6 6 7
1 1 2 3 2 0 1 0 1 2 3 5 6 7 10 10 5 2 5 5 5 5 5 4 2 2 1 3 3 4 5 5 4 2 1 2 2 0 1 1 3 2 2 2 3 0 1 2 4 6 7 6 7 7 2 1 3 4 5 8 8 7 5 4 5 6 6 7 6 8 10 9 9 7 4 5 7 6 5 5 5 4 4 5 5 5 5 5
0 1 1 1 2 1 1 0 0 1 1 1 2 3 8 11 7 2 4 3 2 2 3 4 3 3 4 4 4 5 5 4 4 3 3 3 3 2 1 2 4 3 1 1 4 2 1 3 5 8 10 7 8 9 4 2 4 5 7 10 11 11 9 9 10 9 7 8 8 9 10 12 13 10 3 4 4 4 4 5 3 2 3 3 4 4 5 5
0 0 1 1 1 0 2 1 1 1 2 1 1 2 4 4 4 2 1 1 2 1 2 1 1 1 1 1 1 2 3 3 2 1 1 2 2 4 4 2 3 4 3 2 4 2 2 4 5 7 9 8 7 8 5 4 6 6 7 10 12 14 15 14 14 12 9 10 11 12 15 18 14 6 1 2 3 3 3 4 3 2 2 3 4 5 5 5
1 0 2 2 1 0 1 1 3 3 3 2 1 3 3 2 3 3 1 1 3 1 1 2 0 2 2 1 1 1 2 2 2 1 1 1 1 1 2 2 0 3 5 3 3 0 2 3 4 4 6 8 8 9 9 9 9 10 11 12 14 16 18 16 16 15 14 16 16 16 19 18 8 1 2 0 1 3 4 4 3 3 3 4 4 5 5 5
1 0 1 2 1 1 1 2 2 2 3 2 3 4 2 3 6 3 1 1 3 2 2 3 0 2 2 3 2 1 1 1 1 1 2 0 2 0 0 2 1 2 4 2 2 3 2 3 4 3 5 8 10 12 13 12 11 14 14 14 15 17 17 17 17 17 16 16 16 15 16 11 1 2 2 2 2 3 4 4 4 4 4 4 4 5 4 4
2 1 1 2 1 1 1 0 1 2 3 3 4 4 2 3 4 1 1 2 1 1 1 1 2 2 2 3 2 1 0 3 3 3 1 1 3 1 0 2 1 3 4 1 1 3 2 2 4 5 6 9 10 11 12 9 9 13 15 17 19 17 15 15 14 13 13 12 12 12 10 4 2 3 2 3 3 3 4 4 5 4 4 5 6 6 5 5
3 1 1 2 2 2 2 1 1 3 3 2 3 3 1 1 1 1 0 2 4 3 4 5 4 3 1 2 1 1 2 2 3 3 2 3 5 4 4 5 4 4 3 1 1 2 3 2 3 4 6 9 9 7 5 5 7 11 12 13 16 15 14 13 12 12 9 5 7 8 4 1 2 3 2 3 3 4 4 5 5 5 5 6 7 7 6 6
Wind_Direction
24 27 25 27 26 25 24 21 21 16 14 10 5 2 356 354 348 345 342 339 338 336 337 336 337 339 341 343 342 338 329 319 303 274 256 259 269 248 240 249 213 201 204 200 185 165 135 123 151 137 126 91 14 353 16 8 81 68 96 124 216 203 205 187 189 199 190 252 259 268 200 196 285 296 274 319 350 286 283 271 252 266 254 237 246 254 246 226
23 24 23 23 19 18 16 13 12 6 5 0 358 354 349 347 341 339 335 332 331 328 329 329 331 331 335 339 337 339 329 318 301 269 248 217 241 280 249 235 214 198 195 193 196 174 144 170 164 109 80 62 355 3 1 335 93 101 122 165 226 207 214 194 188 195 206 236 247 268 234 209 257 270 28 252 279 313 289 274 253 259 264 255 249 244 237 211
20 19 19 18 14 12 6 3 0 357 356 351 349 345 341 338 335 335 331 328 327 325 324 323 326 327 332 336 340 344 329 320 305 255 187 144 7 308 265 222 207 193 192 196 202 190 171 177 159 110 58 56 344 18 27 334 178 166 135 211 241 220 233 228 210 211 221 239 272 281 271 231 246 232 178 226 274 288 254 263 260 251 257 258 243 224 222 207
18 14 13 12 8 4 358 357 352 351 348 344 342 338 335 331 330 327 323 321 320 320 318 318 322 322 328 333 341 341 333 334 302 197 155 124 18 354 265 204 194 188 192 191 187 194 181 146 137 88 76 107 326 12 156 233 208 182 155 210 234 204 244 237 219 225 228 234 251 277 320 291 256 195 190 177 279 276 245 246 245 249 252 257 252 210 205 201
15 8 8 3 0 356 353 351 348 348 343 342 340 336 334 329 326 321 318 315 314 314 312 312 313 316 322 326 335 341 355 8 280 186 166 300 348 338 247 190 192 188 188 183 164 165 149 133 110 57 79 153 326 38 237 224 137 185 210 226 227 164 249 242 209 231 214 171 243 275 300 281 267 203 203 173 222 254 252 244 231 240 246 251 257 209 191 200
8 4 3 356 355 353 352 350 348 348 343 343 339 337 334 328 324 319 316 313 311 312 310 308 308 309 314 320 325 335 40 1 258 229 244 288 309 300 209 188 188 186 188 177 150 141 124 108 96 99 87 43 198 194 246 237 129 238 244 245 240 190 234 247 180 215 178 166 225 225 277 289 328 280 217 175 218 246 256 255 239 242 242 249 257 196 188 207
1 2 0 354 354 352 353 350 347 347 343 343 340 337 333 327 323 317 315 312 309 311 310 309 309 308 311 320 315 331 107 237 266 268 272 277 281 268 207 193 184 188 189 173 150 140 115 106 145 155 104 354 218 211 234 235 118 242 255 252 246 206 227 248 210 186 181 216 232 220 323 290 264 280 274 197 222 246 259 261 256 257 253 252 254 227 219 218
358 1 359 355 353 352 353 349 346 345 342 341 338 335 330 325 320 314 312 309 308 310 310 311 312 314 314 318 290 333 150 249 272 275 272 268 261 243 207 190 185 192 190 186 173 156 137 140 175 154 133 245 199 190 195 165 175 219 235 243 249 225 237 261 277 244 235 246 245 291 288 269 262 265 280 256 238 244 258 268 268 261 262 251 250 249 242 232
1 3 2 358 357 355 353 349 347 344 342 341 337 333 327 322 315 310 306 303 303 303 306 308 309 317 316 326 100 312 251 256 276 270 264 255 244 227 207 194 191 194 187 195 186 165 163 173 195 186 193 207 167 191 180 182 237 217 223 256 283 276 271 279 277 249 241 247 194 195 258 265 272 204 265 262 248 247 257 272 273 257 260 249 247 252 245 239
7 7 7 2 2 358 355 352 348 346 345 342 338 334 328 322 314 306 300 298 297 296 298 298 299 309 305 354 94 278 262 259 254 242 244 231 232 218 208 205 197 197 185 184 183 172 180 193 183 161 163 141 167 201 160 179 215 187 200 280 268 277 289 258 261 258 245 259 193 194 252 264 280 86 266 263 232 235 259 270 270 245 254 251 246 251 244 240
11 11 8 6 6 0 358 354 349 349 346 343 341 336 330 322 313 305 299 296 293 292 292 287 289 292 272 149 188 254 260 247 233 229 229 226 234 223 216 215 203 201 186 174 191 193 193 178 146 117 160 173 173 201 211 207 146 81 81 306 279 297 299 246 249 264 228 264 205 188 250 278 304 133 252 262 214 190 255 272 276 257 254 255 249 253 246 241
11 9 8 9 7 2 360 354 351 350 346 345 342 337 331 322 312 305 300 297 294 291 286 281 279 263 248 183 228 249 256 249 240 239 243 239 236 225 220 217 211 212 201 189 206 207 203 167 143 139 214 164 146 247 240 224 60 9 57 320 293 332 308 266 255 256 186 227 184 158 248 285 250 225 248 263 218 208 254 268 277 270 258 257 254 258 250 245
7 7 8 8 6 3 359 353 352 350 347 347 343 338 331 321 314 308 303 298 293 288 279 275 268 235 201 266 247 252 257 254 251 251 251 247 240 233 225 216 211 215 217 213 210 207 205 189 162 169 193 151 217 232 140 58 52 287 60 95 295 339 306 279 264 43 170 208 165 147 263 251 233 244 255 267 163 215 254 261 270 274 267 260 253 256 254 250
5 6 7 7 5 2 357 355 353 350 349 349 345 339 330 323 317 311 309 302 296 286 271 259 238 188 159 257 262 267 262 257 255 251 249 245 234 225 217 207 203 204 212 212 200 193 199 194 162 136 187 162 239 285 21 11 7 292 311 162 298 291 281 297 21 96 295 234 148 158 262 247 248 259 261 279 132 210 247 263 267 273 273 267 255 254 260 256
4 5 6 4 2 360 357 356 354 352 351 351 347 339 331 326 322 323 322 311 303 275 229 187 178 155 110 273 267 271 264 260 257 252 250 240 222 204 192 185 189 190 190 191 184 171 172 168 144 136 254 260 280 324 340 344 359 2 288 270 279 205 263 306 288 197 243 284 107 165 253 254 255 263 266 301 25 202 240 261 265 270 273 272 266 258 262 266
358 1 1 359 358 358 357 356 355 353 352 353 349 340 334 333 336 339 337 334 342 148 146 158 168 147 86 274 270 273 261 252 255 255 244 229 219 198 160 152 155 159 162 156 144 143 143 137 117 150 205 290 195 134 35 352 325 335 235 246 252 242 277 319 295 242 214 237 134 215 245 270 257 264 279 301 297 254 256 269 265 264 270 273 274 269 263 267
352 354 354 355 354 355 356 355 355 353 353 355 350 341 340 347 351 358 19 61 96 112 109 147 160 135 277 256 275 281 272 246 245 252 229 215 206 183 151 127 122 128 122 116 126 125 109 96 37 4 49 356 146 106 39 312 275 276 228 236 242 245 266 308 294 292 167 167 215 236 246 257 261 274 291 292 287 285 280 276 269 262 265 269 273 273 266 261
341 343 348 352 352 353 354 354 354 354 353 355 351 343 348 3 5 52 71 87 101 97 87 108 126 97 276 255 263 279 323 297 228 209 187 172 171 174 157 126 124 118 97 71 108 114 15 31 73 42 342 302 138 118 200 235 240 252 248 256 278 256 247 258 266 294 327 235 233 277 264 259 265 269 275 277 280 285 279 276 274 268 262 262 268 269 268 267
331 338 350 351 351 351 352 354 355 353 350 355 355 344 5 8 4 92 64 60 94 95 97 179 158 142 263 267 272 286 306 196 155 127 141 141 155 158 132 114 115 110 105 84 255 184 109 56 71 113 222 231 207 179 210 231 236 241 239 243 270 278 252 245 255 265 290 279 266 271 271 272 275 269 269 273 268 269 276 278 277 274 269 262 260 260 265 268
335 344 348 347 348 349 353 354 353 352 350 356 1 355 26 12 356 5 337 331 223 244 260 232 213 222 271 277 291 285 254 218 181 137 145 146 149 136 94 78 80 75 123 155 197 195 130 155 167 193 218 228 221 207 222 250 326 328 258 264 260 271 270 261 270 270 249 284 262 252 269 278 281 278 271 271 269 260 263 268 273 279 282 273 261 258 259 262
331 342 334 329 333 341 350 352 350 353 353 0 15 34 91 51 11 320 315 299 262 251 247 238 223 234 252 263 21 65 336 284 27 101 149 153 143 142 112 72 102 130 245 150 160 56 126 193 211 221 224 224 213 205 225 254 292 264 255 277 269 256 270 267 270 277 281 299 259 247 270 275 279 281 268 258 258 254 253 260 274 279 280 278 269 263 261 267
313 321 309 307 318 330 337 347 349 351 354 8 35 72 129 160 214 251 264 300 283 253 235 246 245 250 255 268 291 12 31 292 302 59 157 143 123 182 186 87 132 197 268 116 134 18 229 225 238 238 230 173 85 118 145 212 235 248 243 276 277 258 278 274 260 286 337 241 272 284 283 278 270 267 261 252 246 252 258 253 258 268 273 273 270 271 280 288
289 289 291 295 313 324 327 341 343 347 359 14 47 85 115 266 228 222 163 276 290 271 232 239 241 245 263 278 242 187 190 240 261 272 177 146 108 189 141 120 150 153 141 181 200 207 232 240 238 238 221 216 257 125 105 275 237 226 234 267 276 268 279 273 262 320 350 257 276 297 291 284 269 264 262 257 245 248 259 249 245 254 256 261 273 291 295 290
266 275 285 292 309 320 330 337 335 349 1 16 50 42 26 354 220 174 139 238 284 285 244 207 212 218 235 261 196 172 189 213 213 252 184 155 142 163 151 153 145 149 199 203 208 218 237 241 218 215 185 198 239 252 236 269 258 228 222 234 258 261 257 255 277 335 335 290 305 319 302 290 267 279 295 289 260 241 254 257 249 247 249 265 295 296 282 289
260 272 283 291 302 313 327 330 327 350 353 8 41 9 16 15 70 144 89 12 297 290 276 200 215 223 206 148 158 172 168 194 229 252 186 164 151 140 165 167 143 199 213 201 214 239 252 242 150 119 141 169 202 242 227 223 249 267 223 221 241 257 260 264 293 343 353 314 346 5 326 297 250 51 296 305 317 262 249 247 246 250 270 308 300 286 294 352
267 277 288 296 300 311 324 327 323 341 346 13 12 356 3 4 360 158 96 38 298 279 304 226 218 177 187 91 103 176 116 232 272 307 161 181 163 134 149 169 107 215 200 178 199 241 249 254 155 146 140 133 166 239 227 192 229 285 238 216 231 247 259 267 291 332 316 270 303 56 357 282 276 211 254 263 271 267 254 246 258 289 329 310 284 288 322 26
274 279 287 295 299 305 316 305 309 328 340 335 342 346 349 353 357 205 51 25 296 253 119 282 292 117 198 27 25 136 142 291 335 49 127 175 214 101 150 211 208 214 176 142 289 240 207 231 71 113 121 131 175 240 217 167 175 261 234 189 199 222 238 235 227 234 241 287 310 99 139 276 285 247 246 243 221 259 263 262 281 312 310 301 297 301 353 41
278 279 280 287 289 279 272 271 294 314 298 307 332 340 347 348 313 99 54 353 289 198 99 286 148 120 233 30 53 97 259 326 66 311 328 59 250 65 157 225 188 197 180 146 242 254 160 181 171 139 121 163 201 223 181 156 176 249 210 146 161 188 201 165 157 199 272 340 308 251 139 268 283 263 281 299 204 249 265 267 280 273 258 278 287 313 21 29
279 280 278 276 265 256 259 261 264 272 281 305 330 334 341 335 309 64 77 262 284 71 46 350 134 13 357 35 23 43 349 1 100 278 339 49 277 67 163 218 160 186 222 167 228 256 173 203 185 153 155 208 214 207 170 163 192 227 137 97 79 85 82 101 129 130 59 318 260 203 168 244 282 272 111 15 244 251 259 260 275 273 263 268 293 358 20 336
272 275 268 241 234 243 248 257 261 263 276 293 312 323 331 327 29 70 201 244 327 321 274 121 184 311 46 69 340 351 347 304 3 343 6 55 336 28 124 202 111 131 262 285 257 251 229 191 159 165 192 197 155 105 173 167 166 138 111 63 34 46 46 58 55 88 78 286 248 192 186 202 283 288 151 192 228 232 250 301 310 307 316 311 21 41 344 338
275 276 252 203 207 217 215 261 289 250 256 286 306 320 332 352 69 140 230 250 348 296 9 37 322 22 69 106 284 322 139 282 343 70 63 92 27 25 22 242 80 67 348 323 286 274 242 141 213 235 201 136 113 80 5 56 109 114 97 59 9 337 16 32 354 48 138 263 259 197 183 179 242 265 229 259 264 237 234 320 326 310 303 300 42 47 339 359
280 278 262 194 197 205 202 152 54 111 132 75 327 340 48 22 310 200 243 339 332 285 93 250 314 59 79 56 278 252 177 244 262 137 158 152 142 178 202 194 173 330 317 268 281 314 275 213 234 282 201 151 135 118 355 12 79 117 106 108 341 314 346 351 311 73 209 254 267 180 158 193 246 255 272 272 274 262 227 224 260 272 280 297 359 5 345 12
279 274 266 229 214 216 217 216 102 103 96 77 29 42 82 212 252 185 210 292 246 269 73 106 360 94 112 354 287 241 206 219 204 180 171 145 166 238 246 216 176 209 262 219 303 317 286 271 226 158 262 180 150 167 230 259 172 156 152 158 161 191 248 260 249 256 264 270 304 170 156 252 274 270 241 243 260 272 240 218 244 250 269 297 330 326 333 10
279 275 266 250 232 225 222 224 221 196 104 64 68 68 124 233 243 117 193 242 241 316 339 114 55 1 174 249 247 207 235 258 183 158 180 122 127 257 260 243 196 171 197 211 279 216 251 287 217 172 228 178 173 196 187 138 160 183 170 151 161 179 203 235 227 251 269 274 324 300 175 219 262 279 239 234 260 298 327 287 270 273 302 311 309 314 358 19
279 275 271 261 246 234 223 218 216 208 185 99 92 144 221 236 246 144 220 238 269 304 307 345 76 313 278 247 255 232 228 254 140 115 186 171 189 217 208 218 203 168 147 211 258 173 212 268 249 205 157 161 179 211 145 110 140 209 139 119 204 199 190 243 245 232 253 279 271 242 222 224 235 285 281 260 270 294 317 323 339 13 12 2 351 358 17 22
282 278 275 261 247 238 226 216 206 191 169 125 146 219 230 229 197 196 210 204 199 194 320 317 236 249 277 255 273 291 206 225 219 126 226 206 216 222 212 221 197 176 174 192 233 228 232 263 278 37 20 182 185 204 144 141 209 168 121 188 226 175 155 240 274 241 226 263 242 223 253 273 284 290 298 319 275 301 338 355 32 42 32 26 12 6 9 18
294 287 273 257 249 237 224 216 198 181 158 133 214 227 229 220 198 200 192 145 167 141 122 283 239 200 254 261 275 302 147 223 226 169 232 255 252 211 207 256 207 190 206 213 233 248 256 273 267 157 220 241 216 21 339 354 140 134 172 223 218 103 129 186 277 284 246 253 241 217 246 269 281 279 314 29 10 340 355 14 48 46 37 31 19 15 17 22
309 300 273 260 254 235 218 209 189 172 143 160 231 236 228 220 209 196 182 173 241 189 170 240 241 209 234 242 249 219 162 205 283 131 206 251 251 186 173 257 230 200 225 40 18 278 297 283 277 212 210 263 37 29 303 325 94 140 211 246 122 174 243 190 179 239 248 255 256 216 232 246 244 253 278 296 305 337 354 17 43 37 37 40 32 28 27 27
310 308 273 262 252 220 206 196 178 164 162 199 226 238 228 231 233 203 188 182 233 208 207 233 238 251 251 223 243 265 174 182 189 219 213 226 245 206 157 233 242 223 268 104 164 269 23 257 266 36 101 315 37 129 215 238 342 57 304 308 12 192 215 211 195 183 243 260 266 244 233 226 219 241 268 286 332 22 3 11 41 43 41 46 48 41 32 30
279 291 254 313 307 196 184 177 170 175 210 208 220 232 230 246 250 226 209 206 217 216 222 226 216 235 256 257 266 273 227 197 206 220 218 226 263 286 326 277 236 355 31 102 197 253 34 262 259 277 264 259 257 211 201 207 197 137 205 253 257 231 235 267 235 177 235 258 263 260 252 230 221 235 229 57 53 47 27 27 42 42 34 33 40 42 36 32
249 182 260 341 98 162 158 162 182 199 210 218 231 236 241 258 260 276 269 199 210 254 229 201 209 229 259 275 263 233 214 225 213 215 229 242 251 267 344 15 355 337 43 64 219 227 206 244 253 260 252 252 253 211 178 194 173 158 190 214 224 227 232 258 250 215 217 243 250 261 263 246 261 329 59 79 64 46 36 44 46 33 24 21 22 23 24 24
120 177 288 26 149 157 151 164 200 201 218 222 230 234 240 261 250 257 274 176 179 244 291 212 225 239 253 265 255 232 243 236 212 220 237 232 221 227 327 10 25 15 19 240 228 220 159 156 221 247 242 255 270 248 155 157 148 153 192 232 248 238 217 240 256 242 227 264 296 283 268 260 1 336 357 58 73 63 44 51 53 36 24 21 18 16 18 21
140 239 307 8 162 164 159 194 198 204 231 231 271 259 239 249 248 243 241 182 181 221 237 223 231 236 236 245 244 234 234 222 218 232 238 236 222 232 326 355 46 35 355 311 275 313 43 127 211 253 261 278 282 280 105 89 97 162 242 310 290 264 267 264 273 292 275 277 292 282 263 262 315 319 16 55 69 63 44 45 44 34 27 21 16 17 17 16
339 282 287 294 192 183 189 203 201 212 221 233 255 248 242 235 238 248 246 212 193 199 217 226 239 242 238 249 253 242 240 237 243 244 230 247 254 66 10 11 52 55 335 248 249 297 325 255 247 276 285 285 280 286 347 28 32 147 244 269 210 244 281 287 278 273 258 238 241 255 258 237 278 329 35 52 56 51 41 34 30 25 21 16 12 14 13 10
9 295 265 293 315 248 214 204 206 214 218 231 240 244 252 251 237 237 236 228 207 190 216 253 235 227 266 324 334 275 248 227 250 277 114 256 274 36 20 10 49 102 216 11 238 204 208 258 260 284 283 271 275 281 298 322 311 277 271 297 315 286 282 293 289 267 260 249 241 260 280 281 290 334 21 32 37 48 43 31 33 24 9 11 11 8 9 9
55 300 285 311 349 20 218 66 34 230 222 226 234 241 243 247 257 206 199 235 241 207 215 232 185 130 223 234 232 256 254 217 202 226 261 266 271 344 36 48 70 130 178 38 6 174 192 247 229 243 258 259 271 279 305 348 285 289 310 309 306 298 286 285 277 262 276 293 280 270 280 288 294 305 349 22 13 17 21 21 31 22 0 0 357 353 360 3
122 198 184 303 336 320 227 99 80 260 288 253 234 252 240 238 251 244 201 228 261 223 222 225 190 186 221 222 221 241 248 224 199 207 246 259 268 306 311 112 64 26 133 348 354 61 160 267 243 248 260 262 273 281 303 329 284 286 303 296 291 293 287 273 266 268 288 294 277 275 285 288 290 296 329 30 2 352 357 352 355 2 344 329 325 333 342 346
298 223 222 261 301 243 201 213 13 318 298 314 251 277 269 229 214 225 214 258 288 256 237 243 116 124 226 217 195 229 247 245 236 219 245 302 334 335 341 36 56 27 47 8 346 74 143 269 258 259 271 272 278 285 287 287 282 277 273 273 278 279 273 266 264 266 269 267 270 283 285 280 285 297 46 44 349 319 315 314 312 312 312 311 314 322 331 338
54 303 317 360 37 318 278 321 16 355 284 267 229 251 263 233 232 222 137 341 301 280 234 253 152 92 62 58 128 235 288 277 290 343 69 2 328 307 325 329 112 52 52 35 328 281 170 259 261 259 282 286 285 288 289 288 287 279 271 266 265 266 265 267 269 266 260 259 266 273 273 274 285 105 141 72 315 273 273 287 293 286 287 296 300 306 316 320
68 230 335 35 39 304 333 330 357 336 286 255 247 255 236 235 261 265 139 260 270 263 275 279 226 110 85 70 92 212 321 102 237 302 78 95 284 200 267 267 215 6 7 18 307 289 242 272 296 320 312 291 282 281 281 280 277 275 273 265 258 258 261 265 267 268 266 265 266 266 266 270 240 141 236 256 242 270 281 287 288 272 258 271 279 282 288 289
107 49 59 49 314 236 144 344 238 238 259 229 227 253 258 242 259 288 1 340 346 255 312 66 64 65 82 60 45 264 331 105 183 240 55 235 259 262 266 269 334 341 323 291 281 299 286 294 312 317 291 275 276 281 283 287 283 273 268 262 258 255 254 255 258 262 264 268 273 273 272 270 152 172 247 248 239 272 284 281 290 282 257 260 266 272 279 277
135 18 88 110 296 257 161 140 192 204 231 226 218 241 233 224 323 27 357 43 64 83 91 86 61 44 55 320 331 184 170 144 210 249 260 235 250 252 239 249 258 262 260 250 279 265 241 259 282 281 276 277 281 289 319 352 305 275 262 254 253 254 256 257 258 262 264 264 269 273 267 186 179 200 245 263 251 259 266 263 276 281 272 263 260 265 274 275